Date String (YYYY-MM-DD hh:mm:ss) UTC,Instrument flags,Ambient pressure (hPa),Sample flow (lpm),Bypass flow (lpm),Sample temperature (°C),Ambient temperature (°C),ASC tube jacket temperature (°C),LED temperature (°C),Box temperature (°C),Sample RH (%),Span deviation,Mass concentration (μg/m³),Mass concentration (μg/m³),Mass concentration (μg/m³)
DateTimeUTC,F1_M11,P_M11,Q1_M11,Q2_M11,T1_M11,T2_M11,T3_M11,T4_M11,T5_M11,U1_M11,ZSPAN_M11,X0_M11,X2_M11,X1_M11
2021-12-25 13:00:00,,0815.7,5.00,0.00,21.6,21.0,00.0,30.6,23.3,14.1,0000.0,0001.02,0000.52,0000.32
2021-12-25 13:01:00,,0815.7,5.00,0.00,21.6,21.0,00.0,30.6,23.3,14.2,0000.0,0000.94,0000.52,0000.32
2021-12-25 13:02:00,,0815.7,4.99,0.00,21.6,21.0,00.0,30.6,23.3,14.2,0000.0,0000.99,0000.52,0000.33
2021-12-25 13:03:00,,0815.7,5.02,0.00,21.6,21.1,00.0,30.6,23.3,14.3,0000.0,0000.92,0000.49,0000.32
2021-12-25 13:04:00,,0815.7,4.99,0.00,21.7,21.1,00.0,30.6,23.4,14.2,0000.0,0000.97,0000.50,0000.31
2021-12-25 13:05:00,,0815.7,5.01,0.00,21.7,21.1,00.0,30.6,23.4,14.3,0000.0,0001.39,0000.53,0000.32
2021-12-25 13:06:00,,0815.7,4.99,0.00,21.7,21.1,00.0,30.7,23.4,14.3,0000.0,0001.71,0000.51,0000.31
2021-12-25 13:07:00,,0815.6,5.01,0.00,21.7,21.1,00.0,30.7,23.4,14.3,0000.0,0001.70,0000.50,0000.30
2021-12-25 13:08:00,,0815.7,4.99,0.00,21.7,21.2,00.0,30.7,23.4,14.1,0000.0,0001.75,0000.52,0000.32
2021-12-25 13:09:00,,0815.7,5.01,0.00,21.7,21.2,00.0,30.7,23.5,14.2,0000.0,0001.78,0000.53,0000.32
2021-12-25 13:10:00,,0815.7,4.99,0.00,21.7,21.2,00.0,30.7,23.5,14.3,0000.0,0001.77,0000.53,0000.33
2021-12-25 13:11:00,,0815.8,5.00,0.00,21.8,21.2,00.0,30.7,23.5,14.0,0000.0,0001.75,0000.53,0000.34
2021-12-25 13:12:00,,0815.8,5.01,0.00,21.8,21.7,00.0,30.7,23.7,14.1,0000.0,0001.85,0000.57,0000.34
2021-12-25 13:13:00,,0815.8,4.99,0.00,22.0,22.6,00.0,30.8,24.0,13.8,0000.0,0001.81,0000.59,0000.35
2021-12-25 13:14:00,,0815.8,5.00,0.00,22.1,23.2,00.0,30.9,24.2,13.8,0000.0,0001.79,0000.60,0000.35
2021-12-25 13:15:00,,0815.8,5.01,0.00,22.2,23.0,00.0,30.9,24.2,13.9,0000.0,0001.83,0000.61,0000.36
2021-12-25 13:16:00,,0815.9,5.00,0.00,22.2,22.8,00.0,30.9,24.2,13.9,0000.0,0001.58,0000.58,0000.36
2021-12-25 13:17:00,,0815.9,5.00,0.00,22.3,22.6,00.0,31.0,24.1,13.9,0000.0,0000.99,0000.57,0000.35
2021-12-25 13:18:00,,0816.0,5.00,0.00,22.3,22.4,00.0,31.0,24.1,13.8,0000.0,0000.93,0000.55,0000.35
2021-12-25 13:19:00,,0816.0,5.01,0.00,22.3,22.3,00.0,31.0,24.1,13.3,0000.0,0001.09,0000.54,0000.35
2021-12-25 13:20:00,,0816.0,4.99,0.00,22.3,22.2,00.0,31.0,24.1,13.4,0000.0,0002.13,0000.52,0000.34
2021-12-25 13:21:00,,0815.9,5.00,0.00,22.3,22.1,00.0,31.1,24.1,13.4,0000.0,0002.98,0000.53,0000.34
2021-12-25 13:22:00,,0815.8,5.00,0.00,22.3,22.0,00.0,31.1,24.1,13.2,0000.0,0003.43,0000.57,0000.34
2021-12-25 13:23:00,,0815.7,5.01,0.00,22.3,21.9,00.0,31.1,24.1,13.3,0000.0,0003.42,0000.54,0000.33
2021-12-25 13:24:00,,0815.6,5.01,0.00,22.3,21.9,00.0,31.1,24.1,13.2,0000.0,0003.36,0000.50,0000.33
2021-12-25 13:25:00,,0815.7,4.99,0.00,22.3,21.8,00.0,31.1,24.1,13.2,0000.0,0003.34,0000.49,0000.33
2021-12-25 13:26:00,,0815.7,4.99,0.00,22.3,21.8,00.0,31.2,24.1,13.5,0000.0,0003.30,0000.48,0000.32
2021-12-25 13:27:00,,0815.7,5.01,0.00,22.3,21.8,00.0,31.2,24.1,13.5,0000.0,0003.35,0000.51,0000.32
2021-12-25 13:28:00,,0815.8,4.99,0.00,22.3,21.8,00.0,31.2,24.1,13.4,0000.0,0003.37,0000.52,0000.32
2021-12-25 13:29:00,,0815.8,5.01,0.00,22.3,21.8,00.0,31.2,24.1,13.5,0000.0,0003.51,0000.52,0000.32
2021-12-25 13:30:00,,0815.8,5.00,0.00,22.3,21.8,00.0,31.2,24.1,13.3,0000.0,0004.10,0000.50,0000.31
2021-12-25 13:31:00,,0815.9,5.00,0.00,22.3,21.8,00.0,31.2,24.1,13.1,0000.0,0002.94,0000.48,0000.30
2021-12-25 13:32:00,,0815.9,5.00,0.00,22.3,21.8,00.0,31.2,24.1,12.9,0000.0,0002.23,0000.48,0000.30
2021-12-25 13:33:00,,0816.0,5.00,0.00,22.3,21.7,00.0,31.2,24.0,12.7,0000.0,0001.83,0000.44,0000.30
2021-12-25 13:34:00,,0815.9,4.98,0.00,22.3,21.7,00.0,31.2,24.0,12.7,0000.0,0001.78,0000.45,0000.30
2021-12-25 13:35:00,,0816.0,5.00,0.00,22.3,21.7,00.0,31.2,24.0,12.7,0000.0,0001.85,0000.47,0000.30
2021-12-25 13:36:00,,0816.0,5.00,0.00,22.3,21.7,00.0,31.2,24.0,12.8,0000.0,0001.90,0000.50,0000.31
2021-12-25 13:37:00,,0816.0,4.99,0.00,22.3,21.7,00.0,31.2,24.0,12.6,0000.0,0001.94,0000.52,0000.31
2021-12-25 13:38:00,,0816.0,5.02,0.00,22.3,21.7,00.0,31.2,24.1,13.1,0000.0,0001.90,0000.49,0000.30
2021-12-25 13:39:00,,0816.0,4.99,0.00,22.3,21.7,00.0,31.2,24.1,13.0,0000.0,0001.83,0000.45,0000.30
2021-12-25 13:40:00,,0815.9,5.01,0.00,22.3,21.7,00.0,31.2,24.1,12.6,0000.0,0001.90,0000.46,0000.30
2021-12-25 13:41:00,,0815.9,4.99,0.00,22.3,21.6,00.0,31.2,24.0,12.2,0000.0,0000.90,0000.47,0000.30
2021-12-25 13:42:00,,0815.9,5.00,0.00,22.2,21.6,00.0,31.2,23.9,12.2,0000.0,0001.01,0000.49,0000.31
2021-12-25 13:43:00,,0815.9,5.01,0.00,22.2,21.5,00.0,31.2,23.9,12.3,0000.0,0001.00,0000.48,0000.31
2021-12-25 13:44:00,,0815.9,5.00,0.00,22.2,21.5,00.0,31.2,23.9,12.5,0000.0,0001.01,0000.49,0000.31
2021-12-25 13:45:00,,0816.0,5.01,0.00,22.2,21.5,00.0,31.2,23.9,12.3,0000.0,0000.93,0000.47,0000.32
2021-12-25 13:46:00,,0816.1,5.00,0.00,22.2,21.4,00.0,31.2,23.8,12.5,0000.0,0001.21,0000.47,0000.32
2021-12-25 13:47:00,,0816.0,5.01,0.00,22.1,21.4,00.0,31.2,23.7,12.8,0000.0,0001.45,0000.45,0000.32
2021-12-25 13:48:00,,0816.0,5.00,0.00,22.1,21.3,00.0,31.2,23.7,12.7,0000.0,0001.47,0000.47,0000.32
2021-12-25 13:49:00,,0816.0,4.99,0.00,22.1,21.3,00.0,31.2,23.7,12.7,0000.0,0001.49,0000.47,0000.33
2021-12-25 13:50:00,,0816.0,5.00,0.00,22.0,21.3,00.0,31.1,23.7,13.0,0000.0,0001.60,0000.48,0000.34
2021-12-25 13:51:00,,0816.0,5.00,0.00,22.0,21.2,00.0,31.1,23.6,12.9,0000.0,0001.56,0000.51,0000.35
2021-12-25 13:52:00,,0816.1,5.00,0.00,22.0,21.2,00.0,31.1,23.6,13.0,0000.0,0001.57,0000.51,0000.37
2021-12-25 13:53:00,,0816.0,4.99,0.00,22.0,21.2,00.0,31.1,23.6,12.9,0000.0,0001.87,0000.51,0000.37
2021-12-25 13:54:00,,0816.1,5.01,0.00,21.9,21.2,00.0,31.1,23.6,13.1,0000.0,0002.91,0000.53,0000.38
2021-12-25 13:55:00,,0816.0,5.00,0.00,21.9,21.2,00.0,31.1,23.6,12.9,0000.0,0002.97,0000.56,0000.38
2021-12-25 13:56:00,,0816.0,5.00,0.00,21.9,21.2,00.0,31.0,23.6,12.7,0000.0,0002.98,0000.57,0000.38
2021-12-25 13:57:00,,0816.1,5.00,0.00,22.0,21.3,00.0,31.0,23.6,12.7,0000.0,0002.69,0000.56,0000.37
2021-12-25 13:58:00,,0816.0,5.00,0.00,21.9,21.3,00.0,31.0,23.6,12.8,0000.0,0002.42,0000.58,0000.37
2021-12-25 13:59:00,,0816.0,5.01,0.00,21.9,21.3,00.0,31.0,23.6,12.9,0000.0,0002.44,0000.58,0000.37
